Torna al catalogo

STARLINK-34131

AttivoComunicazioniVLEO
NORAD 64182·PAYLOAD·🇺🇸 United States

Lanciato May 28, 2025 da Cape Canaveral Space Force Station

Loading…

Prossimi Passaggi (prossime 24 ore)

TLE

AggiornatoSource: CelesTrak SupGP

Epoca: Sep 14, 2026, 22:53 UTC

1 64182C 25113N   26257.95395833  .00052547  00000+0  15531-2 0  2576
2 64182  53.1581 291.4653 0001143  84.1862 147.1084 15.34352405    12

Traccia STARLINK-34131 in tempo reale con AllMySat

Download on the App Store